Date String (YYYY-MM-DD hh:mm:ss) UTC,Instrument flags,absolute air pressure of the measurement (hPa),sample flow rate (lpm),inlet stack bypass flow (lpm),air temperature of the measurement (°C),ambient temperature measured by the external sensor (°C),aerosol sample conditioner tube jacket temperature (°C),OPC LED temperature (°C),internal box temperature (°C),relative humidity of the measurement (%),span deviation,mass concentration of particles derived from Lorenz-Mie calculation of OPC scattering (μg/m³),mass concentration of particles derived from Lorenz-Mie calculation of OPC scattering (μg/m³),mass concentration of particles derived from Lorenz-Mie calculation of OPC scattering (μg/m³)
DateTimeUTC,F1_M11,P_M11,Q1_M11,Q2_M11,T1_M11,T2_M11,T3_M11,T4_M11,T5_M11,U1_M11,ZSPAN_M11,X0_M11,X2_M11,X1_M11
2023-10-03 05:00:00,SystemResetWarning,0826.9,4.99,000.00,028.4,027.3,000.0,036.7,030.2,27.0,0000.0,0003.26,0001.32,0000.83
2023-10-03 05:01:00,SystemResetWarning,0826.9,5.00,000.00,028.4,027.3,000.0,036.8,030.2,26.9,0000.0,0003.21,0001.32,0000.84
2023-10-03 05:02:00,SystemResetWarning,0827.0,5.01,000.00,028.4,027.4,000.0,036.8,030.3,27.1,0000.0,0003.36,0001.36,0000.86
2023-10-03 05:03:00,SystemResetWarning,0827.0,5.00,000.00,028.5,027.4,000.0,036.8,030.3,26.5,0000.0,0003.48,0001.38,0000.87
2023-10-03 05:04:00,SystemResetWarning,0826.9,5.01,000.00,028.5,027.5,000.0,036.8,030.4,26.2,0000.0,0003.39,0001.36,0000.86
2023-10-03 05:05:00,SystemResetWarning,0826.9,5.01,000.00,028.5,027.5,000.0,036.8,030.4,26.5,0000.0,0003.35,0001.35,0000.84
2023-10-03 05:06:00,SystemResetWarning,0826.9,4.99,000.00,028.6,027.4,000.0,036.9,030.4,26.6,0000.0,0003.35,0001.32,0000.83
2023-10-03 05:07:00,SystemResetWarning,0826.9,4.99,000.00,028.5,025.6,000.0,036.8,030.3,27.0,0000.0,0003.28,0001.29,0000.81
2023-10-03 05:08:00,SystemResetWarning,0826.8,5.00,000.00,028.5,024.4,000.0,036.8,030.1,27.7,0000.0,0003.33,0001.24,0000.79
2023-10-03 05:09:00,SystemResetWarning,0826.8,5.01,000.00,028.4,024.3,000.0,036.8,029.8,27.8,0000.0,0003.14,0001.15,0000.77
2023-10-03 05:10:00,SystemResetWarning,0826.8,5.01,000.00,028.3,024.7,000.0,036.8,029.7,28.1,0000.0,0002.17,0001.09,0000.75
2023-10-03 05:11:00,SystemResetWarning,0826.6,5.00,000.00,028.2,025.1,000.0,036.8,029.7,28.7,0000.0,0002.16,0001.08,0000.73
2023-10-03 05:12:00,SystemResetWarning,0826.6,5.00,000.00,028.2,025.4,000.0,036.8,029.8,28.7,0000.0,0002.11,0001.06,0000.71
2023-10-03 05:13:00,SystemResetWarning,0826.6,5.00,000.00,028.2,025.8,000.0,036.8,029.8,28.9,0000.0,0001.97,0001.00,0000.68
2023-10-03 05:14:00,SystemResetWarning,0826.7,5.00,000.00,028.2,026.1,000.0,036.7,029.9,29.2,0000.0,0001.65,0000.93,0000.65
2023-10-03 05:15:00,SystemResetWarning,0826.7,4.99,000.00,028.2,026.3,000.0,036.7,029.9,29.1,0000.0,0001.70,0000.93,0000.65
2023-10-03 05:16:00,SystemResetWarning,0826.6,5.00,000.00,028.2,026.5,000.0,036.7,030.0,28.9,0000.0,0001.71,0000.91,0000.65
2023-10-03 05:17:00,SystemResetWarning,0826.6,5.00,000.00,028.2,026.7,000.0,036.7,030.0,28.9,0000.0,0001.71,0000.93,0000.67
2023-10-03 05:18:00,SystemResetWarning,0826.6,5.00,000.00,028.3,026.9,000.0,036.7,030.1,28.9,0000.0,0001.56,0000.89,0000.66
2023-10-03 05:19:00,SystemResetWarning,0826.6,5.01,000.00,028.3,027.0,000.0,036.7,030.1,29.4,0000.0,0001.35,0000.86,0000.66
2023-10-03 05:20:00,SystemResetWarning,0826.6,5.01,000.00,028.3,027.1,000.0,036.7,030.1,30.1,0000.0,0001.44,0000.91,0000.67
2023-10-03 05:21:00,SystemResetWarning,0826.6,4.99,000.00,028.3,027.2,000.0,036.7,030.2,30.2,0000.0,0001.54,0000.96,0000.67
2023-10-03 05:22:00,SystemResetWarning,0826.6,4.99,000.00,028.4,027.2,000.0,036.7,030.2,30.5,0000.0,0001.60,0000.99,0000.67
2023-10-03 05:23:00,SystemResetWarning,0826.6,5.00,000.00,028.4,027.3,000.0,036.7,030.2,30.7,0000.0,0001.60,0000.99,0000.69
2023-10-03 05:24:00,SystemResetWarning,0826.6,5.01,000.00,028.4,027.3,000.0,036.8,030.2,30.9,0000.0,0001.63,0001.00,0000.69
2023-10-03 05:25:00,SystemResetWarning,0826.6,5.01,000.00,028.4,027.3,000.0,036.8,030.3,31.0,0000.0,0001.72,0001.04,0000.70
2023-10-03 05:26:00,SystemResetWarning,0826.6,4.99,000.00,028.5,027.4,000.0,036.8,030.3,30.9,0000.0,0001.75,0001.06,0000.70
2023-10-03 05:27:00,SystemResetWarning,0826.6,4.99,000.00,028.5,027.4,000.0,036.8,030.3,30.8,0000.0,0002.34,0001.08,0000.69
2023-10-03 05:28:00,SystemResetWarning,0826.6,5.00,000.00,028.5,027.4,000.0,036.8,030.3,30.8,0000.0,0002.56,0001.08,0000.70
2023-10-03 05:29:00,SystemResetWarning,0826.6,5.00,000.00,028.5,027.4,000.0,036.8,030.4,30.9,0000.0,0002.60,0001.11,0000.71
2023-10-03 05:30:00,SystemResetWarning,0826.6,5.01,000.00,028.6,027.4,000.0,036.9,030.4,30.9,0000.0,0002.62,0001.14,0000.74
2023-10-03 05:31:00,SystemResetWarning,0826.5,5.00,000.00,028.6,027.5,000.0,036.9,030.4,30.8,0000.0,0002.77,0001.15,0000.74
2023-10-03 05:32:00,SystemResetWarning,0826.5,5.00,000.00,028.6,027.5,000.0,036.9,030.4,30.8,0000.0,0002.95,0001.14,0000.76
2023-10-03 05:33:00,SystemResetWarning,0826.4,4.98,000.00,028.6,026.9,000.0,036.9,030.4,30.7,0000.0,0002.97,0001.14,0000.77
2023-10-03 05:34:00,SystemResetWarning,0826.3,5.01,000.00,028.6,025.1,000.0,036.9,030.2,30.7,0000.0,0003.08,0001.19,0000.79
2023-10-03 05:35:00,SystemResetWarning,0826.4,5.00,000.00,028.5,024.3,000.0,036.8,030.0,30.8,0000.0,0003.21,0001.26,0000.83
2023-10-03 05:36:00,SystemResetWarning,0826.4,5.01,000.00,028.4,024.4,000.0,036.8,029.7,31.1,0000.0,0003.23,0001.29,0000.87
2023-10-03 05:37:00,SystemResetWarning,0826.4,5.01,000.00,028.3,024.7,000.0,036.8,029.7,31.2,0000.0,0003.20,0001.30,0000.89
2023-10-03 05:38:00,SystemResetWarning,0826.3,4.99,000.00,028.2,025.1,000.0,036.8,029.8,31.4,0000.0,0002.84,0001.35,0000.92
2023-10-03 05:39:00,SystemResetWarning,0826.3,5.00,000.00,028.2,025.5,000.0,036.8,029.8,31.5,0000.0,0002.44,0001.35,0000.94
2023-10-03 05:40:00,SystemResetWarning,0826.4,5.01,000.00,028.2,025.9,000.0,036.8,029.9,31.5,0000.0,0003.60,0001.40,0000.94
2023-10-03 05:41:00,SystemResetWarning,0826.4,4.99,000.00,028.2,026.1,000.0,036.8,029.9,31.5,0000.0,0004.32,0001.44,0000.93
2023-10-03 05:42:00,SystemResetWarning,0826.4,4.99,000.00,028.2,026.4,000.0,036.7,029.9,31.5,0000.0,0004.16,0001.39,0000.93
2023-10-03 05:43:00,SystemResetWarning,0826.4,5.00,000.00,028.2,026.6,000.0,036.7,030.0,31.6,0000.0,0003.84,0001.37,0000.94
2023-10-03 05:44:00,SystemResetWarning,0826.4,5.00,000.00,028.2,026.7,000.0,036.7,030.0,31.5,0000.0,0003.88,0001.42,0000.98
2023-10-03 05:45:00,SystemResetWarning,0826.4,5.00,000.00,028.3,026.9,000.0,036.7,030.1,31.4,0000.0,0003.84,0001.42,0000.99
2023-10-03 05:46:00,SystemResetWarning,0826.4,5.00,000.00,028.3,027.0,000.0,036.7,030.1,31.3,0000.0,0003.79,0001.39,0000.99
2023-10-03 05:47:00,SystemResetWarning,0826.4,5.00,000.00,028.3,027.0,000.0,036.7,030.1,31.3,0000.0,0004.40,0001.42,0001.00
2023-10-03 05:48:00,SystemResetWarning,0826.4,5.00,000.00,028.3,027.1,000.0,036.7,030.2,31.3,0000.0,0004.65,0001.53,0001.04
2023-10-03 05:49:00,SystemResetWarning,0826.4,5.00,000.00,028.4,027.2,000.0,036.7,030.2,31.2,0000.0,0004.78,0001.61,0001.07
2023-10-03 05:50:00,SystemResetWarning,0826.4,5.00,000.00,028.4,027.2,000.0,036.8,030.2,31.2,0000.0,0005.04,0001.71,0001.10
2023-10-03 05:51:00,SystemResetWarning,0826.4,4.99,000.00,028.4,027.3,000.0,036.8,030.3,31.1,0000.0,0004.24,0001.79,0001.16
2023-10-03 05:52:00,SystemResetWarning,0826.4,4.99,000.00,028.4,027.4,000.0,036.8,030.3,31.1,0000.0,0003.68,0001.80,0001.22
2023-10-03 05:53:00,SystemResetWarning,0826.4,5.00,000.00,028.5,027.4,000.0,036.8,030.3,31.0,0000.0,0003.92,0001.89,0001.27
2023-10-03 05:54:00,SystemResetWarning,0826.4,5.00,000.00,028.5,027.5,000.0,036.8,030.4,30.9,0000.0,0005.14,0001.94,0001.32
2023-10-03 05:55:00,SystemResetWarning,0826.5,5.00,000.00,028.5,027.5,000.0,036.8,030.4,30.8,0000.0,0005.24,0001.93,0001.33
2023-10-03 05:56:00,SystemResetWarning,0826.4,5.00,000.00,028.6,027.6,000.0,036.9,030.4,30.7,0000.0,0005.50,0002.02,0001.39
2023-10-03 05:57:00,SystemResetWarning,0826.4,5.01,000.00,028.6,027.6,000.0,036.9,030.5,30.6,0000.0,0005.63,0002.14,0001.47
2023-10-03 05:58:00,SystemResetWarning,0826.4,5.01,000.00,028.6,027.6,000.0,036.9,030.5,30.5,0000.0,0005.15,0002.22,0001.54
2023-10-03 05:59:00,SystemResetWarning,0826.4,5.00,000.00,028.7,027.7,000.0,036.9,030.5,30.4,0000.0,0005.12,0002.24,0001.58
